Home > Weather > Vallejo > Past weeks

Flag for USA Weather for the Past 2 Weeks in Vallejo, California, USA

Now
55 °F

Passing clouds.


Feels Like: 53 °F
Forecast: 51 / 72 °F
Wind: 8 mph from South

Location: Napa County Airport

Current Time: May 2, 2016 at 1:18:40 AM

Latest Report: May 2, 2016 at 12:54 AM


Visibility: 9 mi

Pressure: 29.93 "Hg

Humidity: 93%

Dew Point: 53 °F

Location of VallejoLocation

Historic Weather in Vallejo — Graph

°F

Vallejo Temperature Yesterday

Maximum temperature yesterday: 83 °F (at 2:54 PM)
Minimum temperature yesterday: 46 °F (at 5:54 AM)
Average temperature yesterday: 64 °F

High & Low Weather Summary for the Past Weeks

 TemperatureHumidityPressure
High83 °F (May 1, 2:54 PM)100% (Apr 23, 6:54 AM)30.18 "Hg (Apr 23, 6:54 AM)
Low39 °F (Apr 26, 3:54 AM)26% (May 1, 2:54 PM)29.75 "Hg (Apr 22, 5:54 AM)
Average58 °F69%29.93 "Hg
* Reported Apr 16 11:54 PM — May 1 11:54 PM, Vallejo, Weather by CustomWeather, © 2016

Note: Actual official high and low records may vary slightly from our data, if they occured in-between our weather recording intervals... More about our weather records

Advertising

Vallejo Weather History for the Previous 24 Hours

Scroll right to see more
 ConditionsComfort  
Time TempWeatherWind HumidityBarometerVisibility
11:54 PM
Sun, May 1
55 °FClear.8 mph93%29.93 "Hg10 mi
10:54 PM57 °FPassing clouds.12 mph87%29.90 "Hg10 mi
9:54 PM58 °FClear.7 mph84%29.90 "Hg10 mi
8:54 PM60 °FSunny.10 mph83%29.87 "Hg10 mi
7:54 PM62 °FSunny.10 mph73%29.84 "Hg10 mi
6:54 PM65 °FSunny.15 mph61%29.82 "Hg10 mi
5:54 PM68 °FSunny.16 mph55%29.80 "Hg10 mi
4:54 PM71 °FSunny.15 mph53%29.79 "Hg10 mi
3:54 PM77 °FSunny.17 mph47%29.78 "Hg10 mi
2:54 PM83 °FSunny.N/A26%29.79 "Hg10 mi
1:54 PM81 °FSunny.9 mph30%29.79 "Hg10 mi
12:54 PM80 °FSunny.6 mph32%29.79 "Hg10 mi
11:54 AM76 °FSunny.8 mph40%29.80 "Hg10 mi
10:54 AM72 °FSunny.7 mph44%29.81 "Hg10 mi
9:54 AM69 °FSunny.8 mph53%29.82 "Hg10 mi
8:54 AM67 °FSunny.8 mph53%29.81 "Hg10 mi
7:54 AM61 °FSunny.5 mph70%29.80 "Hg10 mi
6:54 AM53 °FClear.5 mph74%29.78 "Hg10 mi
5:54 AM46 °FClear.No wind86%29.77 "Hg10 mi
4:54 AM50 °FClear.5 mph74%29.78 "Hg10 mi
3:54 AM50 °FClear.No wind71%29.78 "Hg10 mi
2:54 AM63 °FClear.5 mph41%29.78 "Hg10 mi
1:54 AM62 °FClear.7 mph46%29.78 "Hg10 mi
Weather by CustomWeather, © 2016

See weather overviewHow to use our weather pages